Regional Weather Roundup
Issued by NWS Bismarck, ND

Home | Current Version | Previous Version | Text Only | Print | Product List | Glossary On
Versions: 1 2 3 4 5 6 7 8 9 10 11 12 13 14 15 16 17 18 19 20 21 22 23 24 25 26 27 28 29 30 31 32 33 34 35 36 37 38 39 40 41 42 43 44 45 46 47 48 49 50
000
ASUS43 KBIS 222220
RWRBIS

NWR BROADCAST TEXT
NATIONAL WEATHER SERVICE BISMARCK ND
500 PM CDT WED OCT 22 2014

NOTE: "FAIR" INDICATES FEW OR NO CLOUDS BELOW 12,000 FEET WITH NO
SIGNIFICANT WEATHER AND/OR OBSTRUCTIONS TO VISIBILITY.


CITY           SKY/WX    TMP DP  RH WIND       PRES   REMARKS
WILLISTON      SUNNY     63  39  41 W17G25    29.81R
MINOT          CLOUDY    62  40  44 W16G25    29.78R
MINOT AFB      PTSUNNY   60  43  52 W20G31    29.76R
BISMARCK       SUNNY     69  38  32 W17       29.84S
DICKINSON      SUNNY     62  34  35 W18G29    29.86R
GARRISON         N/A     63  40  42 W20G28    29.80S
HETTINGER ARPT SUNNY     63  31  30 W20G28    29.92S
JAMESTOWN      CLOUDY    56  51  84 SW6       29.85R
BEACH            N/A     61  32  33 NW21G30   29.90R
CARRINGTON     FAIR      57  55  94 SW8       29.83R
CROSBY         CLOUDY    55  45  67 W12       29.79S
HARVEY         FAIR      63  41  45 W15G21    29.79S
HAZEN          FAIR      63  37  39 W18G24    29.83R
LINTON         FAIR      64  41  42 W9        29.87S
MANDAN         FAIR      64  36  34 W17G24    29.85R
OAKES            N/A     55  55 100 SW9       29.88R
RUGBY          FAIR      63  45  51 W15G22    29.77R
STANLEY        CLOUDY    55  45  67 W17G25    29.81R
TIOGA          CLOUDY    55  43  62 W16G23    29.84R
$$

CITY           SKY/WX    TMP DP  RH WIND       PRES   REMARKS
GRAND FORKS    LGT RAIN  58  52  80 SW9       29.81R
GRAND FORKS AF CLOUDY    57  57  99 SW8       29.81S
DEVILS LAKE    CLOUDY    55  46  71 S12       29.78R
FARGO          CLOUDY    60  51  72 SW15      29.85R
CANDO          FAIR      59  45  58 W9        29.77S
CAVALIER       LGT RAIN  57  52  82 S7        29.76R
GRAFTON        LGT RAIN  55  54  94 SW10      29.79R
GWINNER        PTCLDY    57  57 100 SW6       29.88F
LANGDON        FAIR      54  50  87 SW14      29.76S
ROLLA          FAIR      59  45  58 SW15G21   29.75S
WALHALLA         N/A     55  55 100 SW7       29.75F
$$

CITY           SKY/WX    TMP DP  RH WIND       PRES   REMARKS
ABERDEEN       CLOUDY    57  53  86 W8        29.92R
MOBRIDGE       MOSUNNY   67  42  40 W6        29.88S
BUFFALO          N/A     62  27  26 W24G32    29.89S
RAPID CITY     SUNNY     64  35  34 SE7       29.99S
GLASGOW        SUNNY     63  31  30 W16       29.84S
SIDNEY         SUNNY     63  34  34 W18G25    29.86R
WOLF POINT     SUNNY     65  33  30 W20G30    29.84S
GLENDIVE       SUNNY     63  32  31 W22       29.90R
MILES CITY     SUNNY     64  27  24 W18G24    29.91S
BAKER          SUNNY     61  30  31 W16       29.93R
$$

CITY           SKY/WX    TMP DP  RH WIND       PRES   REMARKS
BILLINGS       SUNNY     64  20  18 W12       29.94S
GREAT FALLS    SUNNY     59  32  36 SW26G33   29.86F
REGINA         PTSUNNY   54  48  82 NW10      29.75S
ESTEVAN        PTSUNNY   54  46  76 W10       29.77R
$$




USA.gov is the U.S. government's official web portal to all federal, state and local government web resources and services.